Station BATN6 - 8518750 - The Battery, NY Image indicating link to RSS feed of recent meteorological observations for station BATN6


Conditions at BATN6 as of
(8:54 pm EDT on 04/20/2024)
0054 GMT on 04/21/2024:
     

Click on the graph icon in the table below to see a time series plot of the last five days of that observation.

5-day plot - Atmospheric Pressure Atmospheric Pressure (PRES):29.88 in
5-day plot - Air Temperature Air Temperature (ATMP): 55.8 °F
5-day plot - Water Temperature Water Temperature (WTMP): 49.6 °F
NOS Water Level Observation Network Water Level
Previous observations
TIME
(EDT)
5-day plot - Wind Direction
WDIR
 
5-day plot - Wind Speed
WSPD
kts
5-day plot - Wind Gust
GST
kts
5-day plot - Wave Height
WVHT
ft
5-day plot - Dominant Wave Period
DPD
sec
5-day plot - Average Wave Period
APD
sec
5-day plot - Mean Wave Direction
MWD
 
5-day plot - Atmospheric Pressure
PRES
in
5-day plot - Pressure Tendency
PTDY
in
5-day plot - Air Temperature
ATMP
°F
5-day plot - Water Temperature
WTMP
°F
5-day plot - Dew Point
DEWP
°F
5-day plot - Salinity
SAL
psu
5-day plot - Visibility
VIS
nmi
5-day plot - Tide (above MLLW)
TIDE
ft
2024-04-20 08:48 pm-------29.87- 56.1 49.6----
2024-04-20 08:42 pm-------29.87- 56.5 49.3----
2024-04-20 08:36 pm-------29.87- 56.8 49.5----
2024-04-20 08:30 pm-------29.86- 57.0 49.5----
2024-04-20 08:24 pm-------29.86- 57.6 49.6----
2024-04-20 08:18 pm--------- 57.9 49.6----
2024-04-20 08:12 pm--------- 58.5 49.3----
2024-04-20 08:06 pm--------- 58.6 49.5----
2024-04-20 08:00 pm-------29.84+0.07 58.8 49.8----
2024-04-20 07:54 pm-------29.83- 59.2 49.8----
2024-04-20 07:48 pm-------29.82-- 50.0----
2024-04-20 07:42 pm-------29.82-- 49.8----
2024-04-20 07:36 pm-------29.81-- 49.8----
2024-04-20 07:30 pm-------29.81- 61.0 49.8----
2024-04-20 07:24 pm-------29.80- 61.5 49.6----
2024-04-20 07:00 pm-------29.78+0.02 64.9 49.5----
2024-04-20 06:54 pm-------29.78- 65.3 49.5----
2024-04-20 06:48 pm-------29.78- 65.7 49.5----
2024-04-20 06:42 pm-------29.78- 65.5 49.5----
2024-04-20 06:36 pm-------29.78- 65.8 49.3----
2024-04-20 06:30 pm-------29.77- 66.6 49.5----
2024-04-20 06:24 pm-------29.77- 64.8 49.5----
2024-04-20 06:18 pm-------29.77- 64.9 49.5----
2024-04-20 06:12 pm-------29.77- 65.8 49.5----
2024-04-20 06:06 pm-------29.76- 66.0 49.3----
2024-04-20 06:00 pm-------29.77-0.02 66.4 49.3----
2024-04-20 05:54 pm-------29.77- 66.2 49.5----
2024-04-20 05:48 pm-------29.77- 66.6 49.3----
2024-04-20 05:42 pm-------29.77- 66.0 49.3----
2024-04-20 05:36 pm-------29.76- 66.2 48.9----
2024-04-20 05:30 pm-------29.76- 66.4 48.9----
2024-04-20 05:24 pm-------29.77- 65.8 49.1----
2024-04-20 05:18 pm-------29.77- 65.5 49.3----
2024-04-20 05:12 pm-------29.77- 65.5 49.8----
2024-04-20 05:06 pm-------29.76- 66.2 50.7----
2024-04-20 05:00 pm-------29.76-0.05 66.2 50.0----
2024-04-20 04:54 pm-------29.77- 65.5 50.0----
2024-04-20 04:48 pm-------29.77-- 50.2----
2024-04-20 04:42 pm-------29.77-- 50.4----
2024-04-20 04:36 pm-------29.77-- 50.7----
2024-04-20 04:30 pm-------29.76- 64.2 50.5----
2024-04-20 04:24 pm-------29.76- 63.9 50.5----
2024-04-20 04:18 pm--------- 63.5 50.2----
2024-04-20 04:12 pm--------- 63.9 50.4----
2024-04-20 04:06 pm--------- 63.5 50.4----
2024-04-20 04:00 pm-------29.77-0.08 60.8 50.4----
2024-04-20 03:54 pm-------29.77- 59.2 50.2----
2024-04-20 03:48 pm-------29.77- 60.4 50.2----
2024-04-20 03:42 pm-------29.77- 60.3 50.2----
2024-04-20 03:36 pm-------29.77- 61.7 50.0----
2024-04-20 03:30 pm-------29.77- 58.6 50.0----
2024-04-20 03:24 pm-------29.77- 61.0 50.2----
2024-04-20 03:18 pm-------29.78- 61.5 49.8----
2024-04-20 03:12 pm-------29.78- 61.2 49.8----
2024-04-20 03:06 pm-------29.78- 61.0 49.6----
2024-04-20 03:00 pm-------29.78-0.09------
2024-04-20 02:54 pm-------29.79-------
2024-04-20 02:48 pm-------29.79- 61.5 49.6----
2024-04-20 02:42 pm-------29.79- 61.9 49.6----
2024-04-20 02:36 pm-------29.80- 61.7 49.8----
2024-04-20 02:30 pm--------- 61.0 49.8----
2024-04-20 02:24 pm--------- 60.8 49.6----
2024-04-20 02:18 pm-------29.81- 61.2 49.5----
2024-04-20 02:12 pm-------29.81- 59.7 49.6----
2024-04-20 02:06 pm-------29.81- 59.5 49.8----
2024-04-20 02:00 pm-------29.82-0.09 59.7 49.8----
2024-04-20 01:54 pm-------29.82- 59.4 49.8----
2024-04-20 01:48 pm-------29.82- 59.4 50.0----
2024-04-20 01:42 pm-------29.82- 59.7 50.2----
2024-04-20 01:36 pm-------29.83- 59.5 49.8----
2024-04-20 01:30 pm-------29.83- 60.1 50.0----
2024-04-20 01:24 pm-------29.83- 59.7 49.8----
2024-04-20 01:18 pm-------29.83- 59.5 50.2----
2024-04-20 01:12 pm-------29.84- 59.2 50.0----
2024-04-20 01:06 pm-------29.85- 60.4 49.5----
2024-04-20 01:00 pm-------29.85-0.05 58.8 49.5----
2024-04-20 12:54 pm-------29.85- 57.7 49.5----
2024-04-20 12:48 pm-------29.86- 56.8 49.5----
2024-04-20 12:42 pm-------29.86- 56.7 49.5----
2024-04-20 12:36 pm-------29.86- 56.3 49.6----
2024-04-20 12:30 pm-------29.86- 56.3 49.5----
2024-04-20 12:24 pm-------29.86- 55.9 49.8----
2024-04-20 12:18 pm-------29.87- 55.6 49.6----
2024-04-20 12:12 pm-------29.87- 55.9 49.5----
2024-04-20 12:06 pm-------29.87- 58.6 49.5----
2024-04-20 12:00 pm-------29.87-0.05 57.6 49.3----
2024-04-20 11:54 am-------29.88- 57.4 49.3----
2024-04-20 11:48 am-------29.88- 54.3 49.3----
2024-04-20 11:42 am-------29.88- 54.3 49.5----
2024-04-20 11:36 am-------29.88- 54.9 49.5----
2024-04-20 11:30 am-------29.88- 54.3 49.5----
2024-04-20 11:24 am-------29.89- 54.1 49.5----
2024-04-20 11:18 am-------29.89- 53.6 49.5----
2024-04-20 11:12 am-------29.90- 52.9 49.5----
2024-04-20 11:06 am-------29.90- 52.2 49.5----
2024-04-20 11:00 am-------29.90-0.03 51.8 49.5----
2024-04-20 10:54 am-------29.91- 51.1 49.5----
2024-04-20 10:48 am-------29.91- 50.9 49.5----
2024-04-20 10:42 am-------29.91- 50.9 49.5----
2024-04-20 10:36 am-------29.91- 50.7 49.5----
2024-04-20 10:30 am-------29.91- 50.5 49.5----
2024-04-20 10:24 am-------29.91- 50.4 49.6----
2024-04-20 10:18 am-------29.91- 50.4 49.6----
2024-04-20 10:12 am-------29.91- 50.4 49.6----
2024-04-20 10:06 am-------29.91- 50.2 49.5----
2024-04-20 10:00 am-------29.90-0.04 50.2 49.5----
2024-04-20 09:54 am-------29.91- 50.0 49.5----
2024-04-20 09:48 am-------29.91-- 49.5----
2024-04-20 09:42 am-------29.90-- 49.5----
2024-04-20 09:36 am-------29.90-- 49.5----
2024-04-20 09:30 am-------29.91- 49.6 49.5----
2024-04-20 09:24 am-------29.91- 49.6 49.5----
2024-04-20 09:18 am-------29.91- 49.5 49.5----
2024-04-20 09:12 am-------29.91- 49.5 49.5----
2024-04-20 09:06 am-------29.91- 49.5 49.5----
2024-04-20 09:00 am-------29.92+0.00 49.1 49.5----
2024-04-20 08:54 am-------29.92- 49.1 49.3----
2024-04-20 08:48 am-------29.92- 48.9 49.3----
2024-04-20 08:42 am-------29.92- 48.9 49.3----
2024-04-20 08:36 am-------29.92- 48.7 49.3----
2024-04-20 08:30 am-------29.92- 48.7 49.3----
2024-04-20 08:24 am-------29.93- 48.7 49.3----
2024-04-20 08:18 am-------29.93- 48.7 49.3----
2024-04-20 08:12 am-------29.93- 48.6 49.3----
2024-04-20 08:06 am-------29.93- 48.7 49.3----
2024-04-20 08:00 am-------29.93+0.01 48.6 49.3----
2024-04-20 07:54 am-------29.93- 48.6 49.3----
2024-04-20 07:48 am-------29.93- 48.6 49.3----
2024-04-20 07:42 am-------29.93- 48.6 49.3----
2024-04-20 07:36 am-------29.93- 48.6 49.3----
2024-04-20 07:30 am-------29.94- 48.6 49.3----
2024-04-20 07:24 am-------29.93- 48.6 49.3----
2024-04-20 07:18 am-------29.93- 48.6 49.3----
2024-04-20 07:12 am-------29.93- 48.6 49.1----
2024-04-20 07:06 am-------29.94- 48.7 49.1----
2024-04-20 07:00 am-------29.94+0.02 48.6 49.1----
2024-04-20 06:54 am-------29.93- 48.4 49.1----
2024-04-20 06:48 am-------29.93- 48.4 49.1----
2024-04-20 06:42 am-------29.93- 48.4 49.1----
2024-04-20 06:36 am-------29.93- 48.4 49.1----
2024-04-20 06:30 am-------29.92-- 48.9----
2024-04-20 06:24 am-------29.92-- 49.1----
2024-04-20 06:18 am-------29.93- 48.4 48.9----
2024-04-20 06:12 am-------29.92- 48.4 48.9----
2024-04-20 06:06 am-------29.91- 48.4 48.9----
2024-04-20 06:00 am-------29.92-0.02- 48.9----
2024-04-20 05:54 am-------29.92-- 48.9----
2024-04-20 05:48 am-------29.92- 48.6 48.7----
2024-04-20 05:42 am-------29.92- 48.4 48.7----
2024-04-20 05:36 am-------29.92- 48.4 48.6----
2024-04-20 05:30 am-------29.92- 48.4 48.6----
2024-04-20 05:24 am-------29.91- 48.4 48.7----
2024-04-20 05:18 am-------29.92- 48.4 48.9----
2024-04-20 05:12 am-------29.92- 48.4 49.3----
2024-04-20 05:06 am-------29.92- 48.4 49.5----
2024-04-20 05:00 am-------29.92-0.04 48.4 49.3----
2024-04-20 04:54 am-------29.92- 48.4 49.3----
2024-04-20 04:48 am-------29.93- 48.4 49.5----
2024-04-20 04:42 am-------29.93- 48.4 49.5----
2024-04-20 04:36 am-------29.93- 48.4 49.3----
2024-04-20 04:30 am-------29.93-- 49.3----
2024-04-20 04:24 am-------29.92-- 49.5----
2024-04-20 04:18 am-------29.92- 48.6 49.5----
2024-04-20 04:12 am-------29.92- 48.6 49.6----
2024-04-20 04:06 am-------29.92- 48.4 49.5----
2024-04-20 04:00 am-------29.92-0.06- 49.5----
2024-04-20 03:54 am-------29.92-- 49.5----
2024-04-20 03:48 am-------29.93- 48.4 49.5----
2024-04-20 03:42 am-------29.93- 48.4 49.5----
2024-04-20 03:36 am-------29.93- 48.2 49.5----
2024-04-20 03:30 am-------29.93- 48.2 49.5----
2024-04-20 03:24 am-------29.93- 48.2 49.5----
2024-04-20 03:18 am-------29.94- 48.2 49.5----
2024-04-20 03:12 am-------29.94- 48.2 49.3----
2024-04-20 03:06 am-------29.94- 48.0 49.3----
2024-04-20 03:00 am-------29.94-0.04 48.2 49.3----
2024-04-20 02:54 am-------29.94- 48.0 49.3----
2024-04-20 02:48 am-------29.95- 48.0 49.3----
2024-04-20 02:42 am-------29.95- 48.2 49.5----
2024-04-20 02:36 am-------29.96- 48.0 49.3----
2024-04-20 02:30 am-------29.96- 48.2 49.3----
2024-04-20 02:24 am-------29.96- 48.0 49.3----
2024-04-20 02:18 am-------29.96- 48.0 49.5----
2024-04-20 02:12 am-------29.96- 48.0 49.5----
2024-04-20 02:06 am-------29.96- 47.8 49.3----
2024-04-20 02:00 am-------29.96-0.04 48.0 49.3----
2024-04-20 01:54 am-------29.97- 48.0 49.5----
2024-04-20 01:48 am-------29.97- 47.8 49.5----
2024-04-20 01:42 am-------29.98- 47.8 49.5----
2024-04-20 01:36 am-------29.98- 47.8 49.5----
2024-04-20 01:30 am-------29.99- 47.8 49.5----
2024-04-20 01:24 am-------29.98- 47.8 49.3----
2024-04-20 01:18 am-------29.99- 47.8 49.3----
2024-04-20 01:12 am-------29.98- 47.8 49.3----
2024-04-20 01:06 am-------29.98- 47.8 49.3----
2024-04-20 01:00 am-------29.98-0.04 47.8 49.5----
2024-04-20 12:54 am-------29.98- 47.8 49.5----
2024-04-20 12:48 am-------29.98- 48.0 49.5----
2024-04-20 12:42 am-------29.98- 47.8 49.5----
2024-04-20 12:36 am-------29.98- 48.0 49.5----
2024-04-20 12:30 am-------29.98- 48.0 49.5----
2024-04-20 12:24 am-------29.99- 48.0 49.5----
2024-04-20 12:18 am-------29.98- 48.0 49.5----
2024-04-20 12:12 am-------29.98- 48.0 49.5----
2024-04-20 12:06 am-------29.98- 48.0 49.5----
2024-04-20 12:00 am-------29.98-0.04 47.8 49.5----
2024-04-19 11:54 pm-------29.98- 48.0 49.5----
2024-04-19 11:48 pm-------29.98- 48.0 49.5----
2024-04-19 11:42 pm-------29.98- 48.0 49.5----
2024-04-19 11:36 pm-------29.99- 48.0 49.5----
2024-04-19 11:30 pm-------29.99- 48.0 49.5----
2024-04-19 11:24 pm-------29.99- 48.0 49.6----
2024-04-19 11:18 pm-------30.00- 48.0 49.6----
2024-04-19 11:12 pm-------30.00- 48.0 49.6----
2024-04-19 11:06 pm-------30.00- 47.8 49.6----
2024-04-19 11:00 pm-------30.01-0.01 47.8 49.6----
2024-04-19 10:54 pm-------30.01- 48.0 49.6----
2024-04-19 10:48 pm-------30.01- 47.8 49.6----
2024-04-19 10:42 pm-------30.01- 47.8 49.6----
2024-04-19 10:36 pm-------30.02- 47.7 49.5----
2024-04-19 10:30 pm-------30.02- 47.7 49.5----
2024-04-19 10:24 pm-------30.02- 47.8 49.5----
2024-04-19 10:18 pm-------30.02- 47.8 49.5----
2024-04-19 10:12 pm-------30.02- 47.8 49.5----
2024-04-19 10:06 pm-------30.02- 47.8 49.5----
2024-04-19 10:00 pm-------30.02+0.00 47.7 49.5----
2024-04-19 09:54 pm-------30.02- 47.8 49.6----
2024-04-19 09:48 pm-------30.02- 47.8 49.6----
2024-04-19 09:42 pm-------30.02- 47.8 49.6----
2024-04-19 09:36 pm-------30.02- 47.7 49.6----
2024-04-19 09:30 pm-------30.02- 47.8 49.6----
2024-04-19 09:24 pm-------30.02- 47.7 49.6----
2024-04-19 09:18 pm-------30.02- 47.7 49.6----
2024-04-19 09:12 pm-------30.02- 47.7 49.6----
2024-04-19 09:06 pm-------30.03- 47.7 49.6----
2024-04-19 09:00 pm-------30.03+0.02 47.5 49.6----
2024-04-19 08:54 pm-------30.03- 47.5 49.6----